Location: Ferchesar
(52.6477°N, 12.4298°E)
Time: 01:04:21
(UTC+01:00)

Transit 2A Rocket - Pass Details

Date: 07 December 2021
Orbit: 584 x 918 km, 66.7° (Epoch: 21 January)

Event Time Altitude Azimuth Distance (km) Brightness Sun altitude
Rises 05:17:39 0° 146° (SE) 3,363 8.9 -24.4°
Reaches altitude 10° 05:22:37 10° 108° (ESE) 2,520 8.7 -23.6°
Maximum altitude 05:23:34 10° 98° (E) 2,506 8.8 -23.5°
Drops below altitude 10° 05:24:32 10° 89° (E) 2,549 8.8 -23.3°
Sets 05:29:43 0° 52° (NE) 3,547 9.1 -22.6°
